Regional Weather Roundup
Issued by NWS Green Bay, WI

Home | Current Version | Previous Version | Graphics & Text | Print | Product List | Glossary Off
Versions: 1 2 3 4 5 6 7 8 9 10 11 12 13 14 15 16 17 18 19 20 21 22 23 24 25 26 27 28 29 30 31 32 33 34 35 36 37 38 39 40 41 42 43 44 45 46 47 48 49 50

783
ASUS43 KGRB 250600
RWRGRB

NORTH-CENTRAL AND NORTHEAST WISCONSIN REGIONAL WEATHER ROUNDUP
NATIONAL WEATHER SERVICE GREEN BAY WI
100 AM CDT TUE APR 25 2017

WIZ005-009-010>012-018-019-250700-
NORTH CENTRAL WISCONSIN

CITY           SKY/WX    TMP DP  RH WIND       PRES   REMARKS
IRONWOOD       CLOUDY    59  36  42 SE13G20   29.66S
MANITOWISH WTR NOT AVBL
ARBOR VITAE    NOT AVBL
EAGLE RIVER    NOT AVBL
LAND O LAKES   NOT AVBL
RHINELANDER    CLOUDY    52  34  50 E8        29.72F
PHILLIPS       CLOUDY    55  37  51 CALM      29.69R
ANTIGO         NOT AVBL
TOMAHAWK       NOT AVBL
MERRILL        NOT AVBL
$$

WIZ013-073-250700-
NORTHEAST WISCONSIN

CITY           SKY/WX    TMP DP  RH WIND       PRES   REMARKS
IRON MOUNTAIN  CLOUDY    43  34  70 SE6       29.78F
MARINETTE      MOCLDY    43  38  82 NW5       29.81R
$$

WIZ017-030-035>037-045-250700-
CENTRAL WISCONSIN

CITY           SKY/WX    TMP DP  RH WIND       PRES   REMARKS
MEDFORD        NOT AVBL
WAUSAU         CLOUDY    58  31  35 SE10      29.69S
MOSINEE        NOT AVBL
MARSHFIELD     CLOUDY    58  34  40 S9        29.68S
WISC RAPIDS    NOT AVBL
STEVENS POINT  NOT AVBL
WAUPACA        NOT AVBL
SHAWANO        NOT AVBL
CLINTONVILLE   NOT AVBL
WAUTOMA        CLOUDY    61  30  31 SE7       29.73F
$$

WIZ038-039-048-051-250700-
FOX VALLEY

CITY           SKY/WX    TMP DP  RH WIND       PRES   REMARKS
NWS GREEN BAY  CLOUDY    50  38  63 CALM      29.79R
APPLETON       NOT AVBL
OSHKOSH        CLOUDY    57  33  40 NE8       29.73R
FOND DU LAC    CLOUDY    60  29  30 SE8       29.74R
$$

WIZ022-050-052-250700-
EAST CENTRAL WISCONSIN

CITY           SKY/WX    TMP DP  RH WIND       PRES   REMARKS
EPHRAIM        NOT AVBL
WASHINGTON ISL NOT AVBL
STURGEON BAY   MOCLDY    48  36  63 SE8       29.79F
MANITOWOC      NOT AVBL
SHEBOYGAN      CLOUDY    45  39  79 E8        29.77F
$$

LMZ563-521-522-541>543-250700-
LAKESHORE

STATION/POSITION TIME  TEMP    WIND        PRES    VSBY  WAVE
                       AIR SEA DIR/SP/G                  HT/PER
                 (UTC) (F)     (DEG/KT/KT) (MB)    (MI)  (FT/S)
SHEBOYGAN LKSHOR 0500   46      CALM  /  1 1008.7F
KEWAUNEE LKSHORE 0530   49      CALM  /  2 1008.5F
ALGOMA MARINA    0514             CALM       N/A
NORTHPORT PIER   0540   44     200/  2/  4 1009.8R
N MID LAKE BUOY  0450   42 37  110/  8/  8 1011.0F         2/ 4
CHAMBERS ISLAND  0540   46      CALM  /  4 1008.8F
MENOMINEE LKSHOR 0530   46      90/  5/  7 1008.2R
$$




USA.gov is the U.S. government's official web portal to all federal, state and local government web resources and services.